Temperature
9 8 8 8 8 8 7 7 6 6 6 6 5 5 4 4 3 3 2 2 1 1 0 -0 -0 -1 -1 -1 -2 -2 -2 -2 -2 -3 -3 -2 -2 -2
9 8 8 8 8 7 7 7 6 5 5 5 4 4 3 3 3 2 2 1 1 0 -0 -1 -1 -2 -2 -2 -3 -3 -3 -3 -3 -3 -3 -3 -3 -3
8 8 8 8 7 7 7 6 6 5 5 4 4 3 3 3 2 2 1 1 0 -0 -1 -2 -2 -2 -3 -3 -3 -4 -4 -4 -4 -4 -4 -4 -4 -3
8 8 8 8 7 7 6 6 5 5 4 4 3 3 2 2 1 1 0 -0 -1 -1 -2 -2 -3 -3 -4 -4 -4 -4 -5 -5 -5 -5 -5 -5 -4 -4
8 8 8 7 7 6 6 6 5 4 4 3 3 2 2 1 0 0 -0 -1 -2 -2 -3 -3 -4 -4 -4 -4 -5 -5 -5 -5 -5 -5 -5 -5 -5 -5
8 8 7 7 6 6 5 5 5 4 3 3 2 1 1 0 -0 -1 -1 -2 -2 -3 -3 -4 -4 -4 -5 -5 -5 -5 -6 -6 -6 -6 -6 -6 -6 -6
8 7 7 6 6 5 5 5 4 3 3 2 1 1 -0 -1 -1 -2 -2 -3 -3 -3 -4 -4 -4 -5 -5 -5 -6 -6 -6 -6 -6 -6 -6 -6 -6 -6
7 7 7 6 6 5 5 4 3 3 2 1 0 -0 -1 -2 -2 -3 -3 -4 -4 -4 -5 -5 -5 -5 -5 -6 -6 -7 -7 -7 -7 -7 -7 -7 -7 -7
7 7 6 6 5 4 4 3 3 2 1 0 -0 -1 -2 -3 -3 -4 -4 -5 -5 -5 -5 -5 -5 -5 -6 -6 -7 -7 -7 -8 -7 -7 -7 -7 -7 -7
6 6 6 5 4 4 3 3 2 1 1 -0 -1 -2 -3 -3 -4 -4 -5 -5 -5 -5 -6 -6 -6 -6 -6 -7 -7 -8 -8 -8 -8 -8 -8 -8 -8 -8
6 5 5 4 4 3 3 2 2 1 -0 -1 -2 -2 -3 -4 -4 -5 -5 -5 -6 -6 -7 -7 -7 -7 -6 -6 -7 -8 -8 -8 -8 -8 -8 -8 -8 -8
5 5 4 4 3 3 2 2 1 0 -1 -1 -2 -3 -3 -4 -4 -5 -6 -6 -7 -8 -8 -8 -9 -9 -8 -7 -7 -8 -8 -8 -8 -8 -9 -8 -8 -8
5 4 4 3 2 2 1 1 0 -1 -1 -2 -2 -3 -4 -4 -5 -6 -6 -7 -8 -8 -9 -9 -9 -10 -10 -9 -8 -8 -9 -9 -9 -9 -9 -8 -8 -8
5 4 3 3 2 1 1 -0 -1 -1 -2 -2 -3 -3 -4 -5 -5 -6 -7 -7 -8 -8 -9 -9 -10 -10 -10 -10 -9 -9 -9 -9 -9 -9 -8 -8 -8 -8
4 3 3 2 1 1 0 -1 -1 -2 -2 -3 -3 -4 -5 -5 -6 -6 -7 -7 -8 -8 -9 -9 -10 -10 -10 -10 -10 -9 -9 -9 -9 -9 -8 -8 -8 -8
3 3 2 1 1 0 -1 -1 -2 -2 -3 -4 -4 -5 -5 -6 -6 -7 -7 -7 -8 -8 -9 -9 -10 -10 -9 -9 -10 -10 -10 -10 -9 -9 -9 -8 -8 -8
3 2 2 1 0 -0 -1 -2 -2 -3 -4 -4 -5 -5 -6 -6 -7 -7 -8 -8 -8 -9 -9 -9 -9 -9 -9 -9 -9 -10 -10 -10 -9 -9 -9 -8 -8 -8
3 2 1 1 -0 -1 -1 -2 -3 -3 -4 -5 -5 -6 -6 -7 -7 -8 -8 -9 -9 -9 -9 -9 -9 -9 -9 -9 -9 -10 -10 -10 -9 -9 -9 -9 -8 -8
2 2 1 0 -0 -1 -2 -2 -3 -4 -4 -5 -6 -6 -7 -7 -8 -8 -8 -9 -9 -9 -10 -10 -10 -10 -10 -10 -9 -10 -10 -10 -9 -9 -9 -9 -8 -8
2 1 1 -0 -1 -2 -2 -3 -4 -4 -5 -5 -6 -6 -7 -7 -8 -8 -9 -9 -9 -10 -10 -10 -10 -11 -11 -11 -10 -9 -10 -10 -10 -9 -9 -8 -8 -8
1 1 0 -1 -1 -2 -3 -3 -4 -5 -5 -6 -6 -7 -7 -8 -8 -9 -9 -9 -10 -10 -10 -10 -10 -11 -10 -10 -10 -9 -9 -10 -10 -10 -9 -9 -8 -7
1 0 -0 -1 -2 -2 -3 -4 -4 -5 -6 -6 -7 -7 -8 -8 -9 -9 -9 -10 -10 -10 -10 -10 -10 -10 -10 -10 -10 -10 -9 -9 -9 -9 -9 -9 -10 -9
1 -0 -1 -1 -2 -3 -3 -4 -5 -5 -6 -6 -7 -7 -8 -8 -9 -9 -9 -10 -10 -10 -10 -10 -10 -10 -10 -10 -10 -10 -10 -9 -8 -8 -8 -8 -9 -8
Wind_Speed
7 6 5 4 3 3 3 3 3 3 4 3 2 2 3 3 6 6 8 11 13 15 16 16 17 18 19 19 20 21 21 21 21 21 22 22 23 23
5 6 5 3 3 3 3 2 3 4 4 3 2 2 3 4 6 7 8 11 13 15 16 16 17 18 19 19 20 20 20 20 20 20 21 22 22 21
6 6 6 4 3 3 2 2 2 3 4 3 2 2 2 3 5 7 8 8 10 13 15 16 17 17 18 19 19 19 19 19 19 19 20 20 21 20
8 7 6 4 4 3 3 3 2 2 3 3 2 2 2 3 4 4 6 8 9 12 14 15 16 17 18 18 19 18 18 18 18 19 19 19 19 19
8 8 6 6 5 3 3 3 2 1 2 2 2 1 2 3 3 4 5 5 9 10 12 14 16 17 18 19 18 18 17 17 18 18 18 18 18 18
7 6 6 6 6 5 4 3 2 2 1 0 1 1 2 2 2 3 4 4 6 7 10 13 15 16 17 18 18 17 17 17 18 18 17 17 17 17
6 5 5 6 6 5 4 3 3 2 1 1 1 1 2 2 3 2 4 5 5 3 5 8 9 9 12 16 16 16 17 17 17 17 17 17 17 17
7 6 5 5 6 6 5 5 5 3 2 1 1 2 3 2 2 3 3 4 4 3 4 6 4 6 8 11 14 16 17 17 17 17 17 17 17 17
8 7 5 4 6 4 5 5 4 4 3 3 1 2 2 2 1 2 3 3 4 4 4 4 4 5 8 11 15 17 17 17 18 18 17 18 18 17
7 7 7 6 6 7 5 4 3 3 3 2 2 1 1 1 0 1 3 4 4 4 2 3 4 5 8 10 13 16 18 18 18 18 18 18 18 16
6 6 7 6 8 9 7 5 4 3 4 5 5 5 5 5 4 2 3 4 4 3 2 3 4 6 5 4 10 16 18 18 18 18 18 18 18 16
6 5 8 8 9 10 6 5 4 2 2 3 4 5 5 6 7 3 1 2 3 3 3 4 3 5 5 4 5 11 12 16 19 18 18 18 18 11
6 4 4 9 9 9 7 5 5 5 3 2 2 2 3 3 4 4 2 1 1 3 3 3 3 3 4 5 5 5 6 8 11 11 15 18 18 13
7 5 6 10 10 9 6 6 7 6 3 2 2 2 2 3 3 4 5 4 3 5 7 5 3 4 5 6 6 5 6 8 6 6 9 16 16 16
7 11 11 12 10 7 7 8 6 3 3 2 1 1 2 2 2 3 4 6 6 7 7 7 4 5 4 5 6 6 6 6 5 6 7 8 7 8
8 11 13 12 8 7 6 4 3 2 2 1 0 1 2 2 2 2 3 3 4 5 7 9 9 5 5 6 6 7 6 5 7 9 9 8 8 8
10 6 5 5 4 3 3 3 2 2 2 1 1 1 2 2 3 3 2 3 3 5 6 6 9 10 8 6 5 6 6 7 7 8 9 10 8 7
11 7 6 5 5 4 3 2 2 1 1 1 1 1 1 2 2 3 3 3 4 4 5 5 6 6 5 4 6 6 6 6 8 9 8 9 9 7
7 6 6 5 4 4 3 3 2 1 1 1 1 0 1 2 2 3 3 4 4 4 5 4 4 5 7 7 6 5 6 9 9 8 7 7 9 10
5 6 6 5 5 4 3 3 2 2 1 1 0 0 1 1 2 3 3 4 4 5 5 5 4 5 5 6 6 6 11 9 8 9 9 8 7 11
6 5 5 5 4 4 3 3 3 2 1 1 1 0 1 1 2 3 3 6 5 4 6 6 6 11 5 4 6 6 7 12 12 8 8 8 6 5
6 6 5 5 5 4 4 3 3 2 2 1 1 1 1 1 2 3 3 4 4 4 5 6 7 6 3 4 7 8 8 9 13 14 10 7 5 5
7 6 5 5 5 4 4 4 4 2 2 2 1 1 1 1 2 2 3 4 4 5 5 6 5 4 4 4 5 6 8 9 7 8 7 13 14 13
Wind_Direction
200 200 205 207 194 194 179 171 180 243 267 274 292 323 319 311 318 323 312 313 316 315 314 315 315 316 317 318 317 316 316 315 315 314 313 312 310 310
194 196 204 200 186 180 179 177 178 196 243 261 255 302 331 331 334 331 318 324 323 320 318 320 322 323 322 321 320 318 317 317 318 317 316 316 315 314
189 190 198 185 177 182 171 169 180 177 233 273 274 316 335 329 336 334 330 329 328 325 324 324 325 326 325 324 323 321 321 323 323 321 320 319 318 319
188 184 193 176 176 174 167 177 184 182 200 258 283 310 315 328 330 326 336 333 324 324 328 329 330 329 327 325 323 322 323 324 323 322 321 321 322 322
183 183 183 169 181 178 173 182 182 163 165 210 271 311 316 334 332 328 331 326 325 324 332 333 331 330 328 326 325 324 325 325 323 322 321 320 321 321
168 170 170 173 183 179 178 181 161 145 135 193 277 305 305 323 330 318 322 324 320 320 330 329 328 330 330 328 327 327 327 325 323 322 322 323 323 321
151 153 157 158 162 165 163 163 151 147 141 164 272 310 306 322 317 309 314 319 311 318 326 318 315 317 323 325 326 327 330 330 330 329 327 326 325 322
153 146 142 143 150 149 144 140 141 147 167 173 230 272 284 285 297 320 316 330 313 314 315 302 308 310 316 318 327 336 337 337 337 335 332 330 327 325
154 150 141 141 134 125 120 106 97 100 121 148 190 247 270 274 297 309 298 294 282 296 316 294 303 308 317 321 330 337 339 339 337 336 333 332 330 329
147 149 147 144 144 135 121 105 86 69 75 93 146 222 298 288 206 298 284 299 290 295 322 295 307 312 315 312 324 339 342 341 340 337 335 333 332 333
136 140 143 145 145 137 127 122 99 60 61 69 63 49 31 21 29 30 0 353 326 311 340 315 308 315 304 299 321 335 339 340 340 338 336 334 332 334
129 134 142 143 143 140 138 137 133 115 79 57 43 36 24 16 20 29 352 336 320 307 319 325 309 328 316 298 304 316 322 329 336 336 337 335 332 333
142 141 144 143 139 137 130 134 134 127 109 88 55 23 10 3 358 358 350 243 266 273 297 320 302 305 285 302 304 300 308 315 319 322 332 333 333 333
148 146 142 139 133 130 124 120 116 108 99 86 57 13 349 337 332 336 336 323 281 264 283 291 276 291 300 303 299 304 310 307 307 308 317 326 329 329
139 143 138 133 127 122 119 118 112 105 104 91 45 320 311 310 323 334 338 338 328 318 314 304 284 284 277 280 292 298 310 307 308 314 316 315 311 312
126 132 130 124 114 115 114 106 99 118 120 132 290 321 339 350 348 343 339 341 339 323 318 320 312 295 284 280 279 289 295 298 312 318 317 310 303 300
129 116 112 118 117 111 103 99 95 91 86 70 68 18 2 357 343 344 346 347 338 321 320 320 322 310 280 270 284 287 297 303 307 316 319 316 308 297
134 137 140 142 147 149 143 130 114 112 101 90 74 25 357 342 335 338 344 341 325 313 312 315 330 334 332 304 250 276 294 304 312 314 311 312 311 308
135 146 151 156 157 155 152 149 153 144 124 116 96 11 339 331 334 338 340 334 323 314 312 315 330 339 336 329 306 287 302 314 316 314 310 306 303 304
142 152 156 158 157 156 155 152 147 135 125 130 130 334 329 327 330 330 328 323 321 319 319 322 325 323 314 305 299 297 307 309 312 313 312 306 292 293
152 152 154 155 154 154 154 152 152 155 155 162 189 245 284 310 318 316 318 328 333 322 322 315 305 319 305 299 305 304 301 314 318 311 310 312 312 308
153 154 154 153 154 155 154 153 154 159 163 175 208 247 268 281 296 304 313 316 315 310 306 301 308 321 326 317 314 311 311 316 323 327 324 318 315 318
155 153 153 155 155 155 155 158 163 173 178 184 202 239 268 288 289 294 301 305 311 314 316 316 321 322 310 301 305 309 313 321 324 330 322 330 330 319
Height
1512 1513 1514 1514 1514 1514 1513 1513 1512 1509 1507 1506 1505 1503 1501 1498 1496 1493 1490 1487 1484 1481 1477 1474 1471 1467 1464 1460 1456 1453 1450 1446 1443 1440 1437 1434 1431 1428
1508 1509 1509 1510 1510 1510 1509 1509 1508 1506 1504 1502 1501 1499 1496 1494 1491 1488 1485 1482 1478 1475 1472 1469 1465 1462 1458 1454 1451 1447 1444 1441 1437 1434 1431 1429 1426 1423
1503 1504 1505 1506 1506 1506 1505 1504 1503 1502 1500 1499 1497 1495 1492 1490 1487 1484 1480 1477 1473 1470 1467 1463 1460 1456 1453 1449 1445 1442 1439 1435 1432 1429 1426 1423 1421 1418
1499 1500 1501 1502 1502 1502 1501 1500 1499 1498 1497 1494 1493 1491 1488 1485 1482 1479 1475 1472 1468 1465 1462 1458 1454 1451 1447 1443 1440 1437 1433 1430 1427 1425 1422 1419 1416 1413
1494 1496 1496 1497 1497 1497 1497 1496 1495 1494 1492 1490 1488 1486 1484 1481 1477 1474 1471 1468 1464 1461 1457 1453 1450 1446 1442 1438 1435 1432 1429 1426 1423 1420 1417 1415 1412 1409
1490 1491 1492 1493 1493 1493 1493 1492 1491 1490 1488 1486 1484 1482 1480 1477 1473 1470 1466 1463 1460 1456 1453 1449 1445 1441 1437 1433 1430 1427 1424 1421 1419 1416 1413 1411 1408 1405
1486 1487 1488 1489 1489 1489 1488 1488 1486 1485 1484 1482 1480 1478 1475 1473 1470 1466 1462 1459 1456 1452 1448 1445 1441 1437 1433 1430 1426 1424 1421 1418 1415 1412 1409 1407 1404 1401
1482 1483 1484 1485 1485 1485 1484 1484 1483 1482 1480 1479 1477 1474 1472 1470 1467 1464 1460 1455 1451 1449 1444 1441 1438 1434 1430 1426 1423 1421 1417 1414 1411 1408 1406 1403 1400 1398
1478 1479 1480 1481 1481 1481 1481 1480 1479 1478 1477 1476 1474 1471 1469 1467 1464 1461 1457 1454 1450 1446 1441 1437 1434 1430 1427 1423 1420 1418 1414 1411 1408 1405 1402 1399 1397 1394
1474 1476 1477 1477 1478 1478 1477 1477 1476 1475 1473 1472 1471 1469 1466 1464 1461 1459 1455 1452 1448 1444 1440 1435 1430 1427 1424 1421 1418 1415 1411 1408 1405 1401 1399 1396 1393 1391
1471 1472 1474 1474 1475 1474 1474 1474 1473 1472 1471 1469 1468 1466 1464 1461 1459 1456 1452 1448 1444 1441 1437 1433 1428 1424 1420 1418 1416 1412 1408 1405 1402 1398 1395 1393 1390 1387
1468 1469 1470 1471 1471 1471 1471 1470 1470 1469 1468 1467 1465 1463 1461 1459 1456 1453 1449 1446 1442 1439 1435 1432 1428 1423 1418 1415 1413 1410 1406 1402 1399 1395 1392 1389 1386 1383
1464 1466 1467 1468 1468 1468 1468 1468 1467 1466 1465 1464 1462 1461 1459 1456 1453 1451 1448 1445 1441 1438 1435 1431 1427 1423 1420 1413 1409 1407 1403 1399 1395 1392 1389 1386 1383 1380
1462 1463 1464 1465 1465 1465 1465 1465 1464 1464 1463 1461 1460 1458 1456 1453 1451 1448 1446 1443 1440 1437 1433 1430 1426 1422 1418 1412 1407 1404 1401 1397 1393 1390 1386 1383 1380 1377
1459 1460 1461 1462 1463 1463 1463 1462 1462 1461 1460 1459 1457 1456 1454 1451 1449 1446 1443 1441 1438 1435 1431 1428 1424 1420 1417 1412 1407 1402 1398 1394 1391 1387 1383 1380 1377 1374
1456 1457 1459 1459 1460 1460 1460 1460 1460 1459 1458 1457 1455 1454 1452 1449 1447 1444 1441 1438 1435 1432 1429 1426 1422 1418 1413 1409 1406 1402 1398 1394 1389 1385 1381 1378 1375 1371
1453 1455 1456 1457 1457 1458 1458 1458 1457 1457 1456 1455 1453 1451 1449 1447 1445 1442 1439 1436 1433 1429 1426 1423 1420 1416 1412 1408 1404 1400 1396 1392 1388 1383 1378 1375 1372 1369
1451 1452 1453 1454 1455 1455 1455 1455 1455 1454 1454 1452 1451 1449 1447 1445 1443 1440 1438 1435 1432 1428 1425 1421 1416 1412 1409 1405 1403 1398 1394 1389 1385 1382 1377 1373 1369 1367
1448 1449 1450 1451 1452 1453 1453 1453 1452 1452 1451 1450 1449 1447 1445 1443 1441 1439 1436 1434 1431 1428 1424 1420 1416 1412 1407 1403 1401 1398 1393 1387 1383 1379 1376 1372 1368 1365
1445 1447 1448 1449 1450 1450 1450 1450 1450 1450 1449 1448 1447 1445 1444 1442 1440 1437 1435 1432 1429 1426 1423 1420 1416 1412 1409 1405 1400 1396 1393 1387 1382 1377 1373 1370 1367 1364
1442 1444 1445 1446 1447 1448 1448 1448 1448 1447 1447 1446 1445 1443 1442 1440 1438 1436 1434 1431 1429 1425 1422 1419 1416 1413 1409 1405 1400 1395 1391 1388 1382 1377 1372 1368 1364 1361
1440 1441 1443 1444 1445 1445 1445 1445 1445 1445 1444 1443 1442 1441 1440 1438 1437 1435 1433 1430 1428 1425 1422 1419 1415 1412 1408 1404 1399 1394 1390 1386 1383 1378 1373 1370 1366 1361
1437 1439 1440 1441 1442 1442 1443 1443 1443 1442 1442 1441 1440 1439 1438 1437 1435 1433 1431 1429 1427 1424 1421 1417 1414 1411 1407 1404 1399 1395 1390 1385 1381 1377 1374 1370 1366 1363